• In Belgium
  • List of Countries
  • For 7 days
  • Water Temperature
  • Satellite Maps
  • Weather Map
  • Weather Widgets
  • user-avatar
    Login

    Hourly Weather Abovyan

    Today, 24 January, Wednesday

    Time Temperature Precipitation Wind Pressure Humidity
    00:00 +2°C° 0.1 mm 1 mps 667 mmHg 62%
    01:00 +2°C° 0.1 mm 1 mps 667 mmHg 64%
    02:00 +2°C° 0.1 mm 1 mps 667 mmHg 65%
    03:00 +3°C° 0 mm 1 mps 666 mmHg 65%
    04:00 +2°C° 0.1 mm 1 mps 666 mmHg 68%
    05:00 +2°C° 0.1 mm 1 mps 667 mmHg 71%
    06:00 +1°C° 0.1 mm 1 mps 667 mmHg 73%
    07:00 +2°C° 0.1 mm 1 mps 667 mmHg 73%
    08:00 +2°C° 0.1 mm 1 mps 668 mmHg 72%
    09:00 +3°C° 0.1 mm 1 mps 668 mmHg 72%
    10:00 +4°C° 0.1 mm 1 mps 669 mmHg 70%
    11:00 +5°C° 0.1 mm 1 mps 669 mmHg 69%
    12:00 +5°C° 0.1 mm 1 mps 669 mmHg 68%
    13:00 +6°C° 0.1 mm 1 mps 669 mmHg 67%
    14:00 +6°C° 0.1 mm 1 mps 668 mmHg 67%
    15:00 +6°C° 0.1 mm 1 mps 668 mmHg 67%
    16:00 +5°C° 0.1 mm 1 mps 669 mmHg 68%
    17:00 +4°C° 0.1 mm 1 mps 669 mmHg 69%
    18:00 +3°C° 0.1 mm 1 mps 669 mmHg 70%
    19:00 +3°C° 0.2 mm 1 mps 669 mmHg 71%
    20:00 +3°C° 0.2 mm 1 mps 670 mmHg 71%
    21:00 +3°C° 0.2 mm 1 mps 670 mmHg 72%
    22:00 +3°C° 0.2 mm 1 mps 670 mmHg 73%
    23:00 +3°C° 0.2 mm 1 mps 670 mmHg 73%

    Tomorrow, 25 January, Thursday

    Time Temperature Precipitation Wind Pressure Humidity
    00:00 +3°C° 0.2 mm 1 mps 670 mmHg 74%
    01:00 +2°C° 0.2 mm 1 mps 670 mmHg 75%
    02:00 +2°C° 0.2 mm 1 mps 670 mmHg 76%
    03:00 +2°C° 0.2 mm 1 mps 671 mmHg 77%
    04:00 +2°C° 0.1 mm 1 mps 671 mmHg 77%
    05:00 +2°C° 0.1 mm 1 mps 670 mmHg 78%
    06:00 +1°C° 0.1 mm 1 mps 670 mmHg 78%
    07:00 +2°C° 0.1 mm 1 mps 671 mmHg 77%
    08:00 +2°C° 0.1 mm 1 mps 671 mmHg 76%
    09:00 +3°C° 0.1 mm 1 mps 671 mmHg 75%
    10:00 +4°C° 0.1 mm 1 mps 671 mmHg 74%
    11:00 +4°C° 0.1 mm 2 mps 671 mmHg 72%
    12:00 +5°C° 0.1 mm 2 mps 671 mmHg 71%
    13:00 +5°C° 0.1 mm 2 mps 671 mmHg 71%
    14:00 +5°C° 0.1 mm 2 mps 671 mmHg 71%
    15:00 +5°C° 0.1 mm 2 mps 670 mmHg 71%
    16:00 +4°C° 0.1 mm 2 mps 670 mmHg 73%
    17:00 +4°C° 0.1 mm 2 mps 671 mmHg 75%
    18:00 +4°C° 0.1 mm 1 mps 671 mmHg 76%
    19:00 +3°C° 0.1 mm 2 mps 671 mmHg 77%
    20:00 +2°C° 0.1 mm 2 mps 671 mmHg 77%
    21:00 +2°C° 0.1 mm 2 mps 671 mmHg 77%
    22:00 +2°C° 0.1 mm 2 mps 671 mmHg 77%
    23:00 +2°C° 0.1 mm 2 mps 671 mmHg 77%

    Day after tomorrow, 26 January, Friday

    Time Temperature Precipitation Wind Pressure Humidity
    00:00 +2°C° 0.1 mm 2 mps 671 mmHg 77%
    01:00 +1°C° 0.1 mm 2 mps 671 mmHg 78%
    02:00 +1°C° 0.1 mm 2 mps 671 mmHg 78%
    03:00 +1°C° 0.1 mm 2 mps 671 mmHg 78%
    04:00 +1°C° 0 mm 2 mps 670 mmHg 78%
    05:00 -1°C° 0 mm 2 mps 670 mmHg 78%
    06:00 -1°C° 0 mm 2 mps 670 mmHg 77%
    07:00 +1°C° 0 mm 2 mps 670 mmHg 76%
    08:00 +1°C° 0 mm 2 mps 670 mmHg 75%
    09:00 +2°C° 0 mm 2 mps 670 mmHg 74%
    10:00 +2°C° 0.1 mm 2 mps 670 mmHg 72%
    11:00 +3°C° 0.1 mm 2 mps 670 mmHg 70%
    12:00 +4°C° 0.1 mm 2 mps 670 mmHg 69%
    13:00 +4°C° 0.1 mm 2 mps 670 mmHg 69%
    14:00 +4°C° 0.1 mm 2 mps 670 mmHg 69%
    15:00 +5°C° 0.1 mm 1 mps 670 mmHg 69%
    16:00 +4°C° 0.2 mm 1 mps 670 mmHg 72%
    17:00 +4°C° 0.2 mm 1 mps 670 mmHg 74%
    18:00 +3°C° 0.2 mm 1 mps 670 mmHg 76%
    19:00 +3°C° 0.3 mm 1 mps 671 mmHg 77%
    20:00 +3°C° 0.3 mm 1 mps 671 mmHg 78%
    21:00 +1°C° 0.3 mm 2 mps 671 mmHg 79%
    22:00 +2°C° 0.4 mm 1 mps 671 mmHg 79%
    23:00 +2°C° 0.4 mm 1 mps 671 mmHg 80%

    27 January, Saturday

    Time Temperature Precipitation Wind Pressure Humidity
    00:00 +2°C° 0.4 mm 1 mps 671 mmHg 81%
    01:00 +1°C° 0.3 mm 2 mps 671 mmHg 81%
    02:00 -1°C° 0.3 mm 2 mps 671 mmHg 81%
    03:00 -1°C° 0.3 mm 2 mps 671 mmHg 81%
    04:00 -1°C° 0.2 mm 2 mps 671 mmHg 81%
    05:00 -1°C° 0.2 mm 2 mps 671 mmHg 82%
    06:00 -2°C° 0.2 mm 2 mps 671 mmHg 82%
    07:00 -1°C° 0.1 mm 2 mps 671 mmHg 80%
    08:00 -1°C° 0.1 mm 2 mps 672 mmHg 78%
    09:00 +1°C° 0.1 mm 2 mps 672 mmHg 76%
    10:00 +1°C° 0.1 mm 2 mps 672 mmHg 74%
    11:00 +2°C° 0.1 mm 2 mps 672 mmHg 71%
    12:00 +3°C° 0.1 mm 2 mps 672 mmHg 69%
    13:00 +3°C° 0.1 mm 2 mps 672 mmHg 69%
    14:00 +3°C° 0.1 mm 2 mps 672 mmHg 68%
    15:00 +3°C° 0.1 mm 2 mps 672 mmHg 68%
    16:00 +3°C° 0.1 mm 2 mps 673 mmHg 70%
    17:00 +2°C° 0.1 mm 2 mps 673 mmHg 72%
    18:00 +1°C° 0.1 mm 2 mps 674 mmHg 74%
    19:00 -1°C° 0.2 mm 2 mps 674 mmHg 75%
    20:00 -1°C° 0.2 mm 2 mps 675 mmHg 76%
    21:00 -2°C° 0.2 mm 2 mps 675 mmHg 78%
    22:00 -2°C° 0.1 mm 2 mps 675 mmHg 78%
    23:00 -2°C° 0.1 mm 2 mps 676 mmHg 78%

    28 January, Sunday

    Time Temperature Precipitation Wind Pressure Humidity
    00:00 -3°C° 0.1 mm 2 mps 676 mmHg 78%
    01:00 -3°C° 0.1 mm 2 mps 676 mmHg 79%
    02:00 -3°C° 0.1 mm 2 mps 676 mmHg 79%
    03:00 -4°C° 0.1 mm 2 mps 676 mmHg 79%
    04:00 -4°C° 0 mm 2 mps 677 mmHg 79%
    05:00 -4°C° 0 mm 2 mps 677 mmHg 79%
    06:00 -4°C° 0 mm 2 mps 677 mmHg 79%
    07:00 -4°C° 0 mm 2 mps 677 mmHg 77%
    08:00 -3°C° 0 mm 2 mps 678 mmHg 75%
    09:00 -2°C° 0 mm 2 mps 678 mmHg 73%
    10:00 -1°C° 0 mm 2 mps 678 mmHg 71%
    11:00 +1°C° 0 mm 1 mps 678 mmHg 68%
    12:00 +2°C° 0 mm 1 mps 678 mmHg 66%
    13:00 +3°C° 0 mm 1 mps 678 mmHg 66%
    14:00 +3°C° 0 mm 1 mps 677 mmHg 66%
    15:00 +3°C° 0 mm 1 mps 677 mmHg 65%
    16:00 +2°C° 0 mm 1 mps 677 mmHg 67%
    17:00 -1°C° 0 mm 2 mps 678 mmHg 70%
    18:00 -2°C° 0 mm 2 mps 678 mmHg 72%
    19:00 -2°C° 0 mm 2 mps 678 mmHg 73%
    20:00 -3°C° 0 mm 2 mps 678 mmHg 74%
    21:00 -3°C° 0 mm 2 mps 678 mmHg 75%
    22:00 -4°C° 0 mm 2 mps 678 mmHg 75%
    23:00 -2°C° 0 mm 1 mps 678 mmHg 76%

    29 January, Monday

    Time Temperature Precipitation Wind Pressure Humidity
    00:00 -2°C° 0 mm 1 mps 678 mmHg 76%
    01:00 -3°C° 0 mm 1 mps 678 mmHg 76%
    02:00 -3°C° 0 mm 1 mps 678 mmHg 76%
    03:00 -4°C° 0 mm 1 mps 677 mmHg 76%
    04:00 -4°C° 0 mm 1 mps 677 mmHg 75%
    05:00 -4°C° 0 mm 1 mps 677 mmHg 75%
    06:00 -6°C° 0 mm 1 mps 677 mmHg 75%
    07:00 -4°C° 0 mm 1 mps 677 mmHg 73%
    08:00 -3°C° 0 mm 1 mps 677 mmHg 71%
    09:00 -2°C° 0 mm 1 mps 677 mmHg 69%
    10:00 -1°C° 0 mm 1 mps 677 mmHg 66%
    11:00 0°C° 0 mm 1 mps 676 mmHg 63%
    12:00 +1°C° 0 mm 1 mps 676 mmHg 61%
    13:00 +1°C° 0 mm 1 mps 675 mmHg 61%
    14:00 +1°C° 0 mm 1 mps 675 mmHg 61%
    15:00 +2°C° 0 mm 1 mps 674 mmHg 61%
    16:00 0°C° 0 mm 1 mps 674 mmHg 64%
    17:00 -1°C° 0 mm 1 mps 674 mmHg 66%
    18:00 -2°C° 0 mm 1 mps 674 mmHg 68%
    19:00 -3°C° 0 mm 1 mps 674 mmHg 68%
    20:00 -3°C° 0 mm 1 mps 674 mmHg 68%
    21:00 -3°C° 0 mm 1 mps 674 mmHg 68%
    22:00 -3°C° 0 mm 1 mps 674 mmHg 68%
    23:00 -3°C° 0 mm 1 mps 673 mmHg 68%
    Show more